Tucumcari, NM

5:42 AM MST on February 26, 2017 (GMT -0700)
Tucumcari Municipal

Weather History for KTCC - June, 2013

Change the Weather History Date:

Wednesday, June 26, 2013

  Actual Average Record
Temperature  
Mean Temperature 84 °F -  
Max Temperature 105 °F 93 °F 107 °F (2011)
Min Temperature 66 °F 62 °F 48 °F (1958)
Cooling Degree Days 19    
Growing Degree Days 34 (Base 50)    
Moisture  
Dew Point 29 °F    
Average Humidity 14    
Maximum Humidity 24    
Minimum Humidity 4    
Precipitation  
Precipitation 0.00 in - - ()
Sea Level Pressure  
Sea Level Pressure 29.73 in    
Wind  
Wind Speed 6 mph (West)    
Max Wind Speed 10 mph    
Max Gust Speed -    
Visibility 10 miles    
Events      
Averages and records for this station are not official NWS values.
T = Trace of Precipitation, MM = Missing Value Source: NWS Daily Summary

Daily Weather History Graph

Daily Weather History Graph

Search for Another Location

Airport or City:

Trip Planner

Search our weather history database for the weather conditions in past years. The results will help you decide how hot, cold, wet, or windy it might be!

Date:

Astronomy

Jun. 26, 2013 Rise Set
Actual Time 5:41 AM MDT 8:12 PM MDT
Civil Twilight 5:11 AM MDT 8:42 PM MDT
Nautical Twilight 4:35 AM MDT 9:19 PM MDT
Astronomical Twilight 3:54 AM MDT 10:00 PM MDT
Moon 10:47 PM MDT 9:27 AM MDT
Length of Visible Light 15h 30m
Length of Day
14h 31m
Waning Gibbous, 85% of the Moon is Illuminated
Jun 26
Waning Gibbous
Jun 29
Last Quarter
Jul 8
New
Jul 15
First Quarter
Jul 22
Full

Hourly Weather History & Observations

Time (MDT) Temp. Dew Point Humidity Pressure Visibility Wind Dir Wind Speed Gust Speed Precip Events Conditions
12:53 AM 75.9 °F 28.0 °F 17% 29.66 in 10.0 mi West 5.8 mph - N/A   Clear
1:53 AM 78.1 °F 27.0 °F 15% 29.65 in 10.0 mi West 10.4 mph - N/A   Clear
2:53 AM 72.0 °F 28.0 °F 20% 29.67 in 10.0 mi South 6.9 mph - N/A   Clear
3:53 AM 69.1 °F 28.0 °F 22% 29.69 in 10.0 mi SW 6.9 mph - N/A   Clear
4:53 AM 66.9 °F 28.9 °F 24% 29.71 in 10.0 mi WSW 4.6 mph - N/A   Clear
5:53 AM 69.1 °F 28.0 °F 22% 29.72 in 10.0 mi West 9.2 mph - N/A   Clear
6:53 AM 73.0 °F 30.9 °F 21% 29.73 in 10.0 mi SW 6.9 mph - N/A   Clear
7:53 AM 80.1 °F 32.0 °F 17% 29.75 in 10.0 mi North 3.5 mph - N/A   Clear
8:53 AM 86.0 °F 28.9 °F 13% 29.78 in 10.0 mi WNW 5.8 mph - N/A   Clear
9:53 AM 89.1 °F 28.9 °F 12% 29.77 in 10.0 mi WNW 6.9 mph - N/A   Clear
10:53 AM 91.9 °F 30.9 °F 11% 29.79 in 10.0 mi NNW 4.6 mph - N/A   Clear
11:53 AM 95.0 °F 30.0 °F 10% 29.78 in 10.0 mi West 4.6 mph - N/A   Clear
12:53 PM 100.0 °F 12.9 °F 4% 29.77 in 10.0 mi NE 4.6 mph - N/A   Clear
1:53 PM 100.0 °F 28.0 °F 8% 29.75 in 10.0 mi Variable 5.8 mph - N/A   Clear
2:53 PM 102.0 °F 30.9 °F 8% 29.74 in 10.0 mi SE 5.8 mph - N/A   Clear
3:53 PM 102.9 °F 28.9 °F 7% 29.73 in 10.0 mi West 5.8 mph - N/A   Clear
4:53 PM 102.9 °F 26.1 °F 7% 29.72 in 10.0 mi Calm Calm - N/A   Clear
5:53 PM 102.9 °F 27.0 °F 7% 29.70 in 10.0 mi SE 3.5 mph - N/A   Clear
6:53 PM 102.9 °F 28.0 °F 7% 29.70 in 10.0 mi Calm Calm - N/A   Clear
7:53 PM 96.1 °F 35.1 °F 12% 29.70 in 10.0 mi NE 4.6 mph - N/A   Clear
8:53 PM 86.0 °F 34.0 °F 16% 29.73 in 10.0 mi NNE 5.8 mph - N/A   Clear
9:53 PM 82.9 °F 33.1 °F 17% 29.75 in 10.0 mi East 6.9 mph - N/A   Clear
10:53 PM 84.0 °F 32.0 °F 15% 29.76 in 10.0 mi East 4.6 mph - N/A   Clear
11:53 PM 80.1 °F 33.1 °F 18% 29.77 in 10.0 mi South 3.5 mph - N/A   Clear